Humidity-temperature Sensor

Selected Measurement Type: Relative Humidity

 
Relative Humidity [%]     6 entries per hour
Showing data from 9/30/2020 (00:00:00 Z) to 9/29/2020 (00:01:00 Z)
Previous Next [ Day | 3-Days | 7-Days ]
First Last
Prev [ Day | 3-Days | 7-Days ] Next
First Last

Start Time:     :
End Time:     :     
Time (in GMT) :00 :50 :40 :30 :20 :10
Previous Next [ Day | 3-Days | 7-Days ]
First Last
Prev [ Day | 3-Days | 7-Days ] Next
First Last


123 => good data
MM => data is determined as missing
-- => data not received/configured
Back to Top Back to Top
9/30/2020 00:00 to 23:10 90.48 90.81 91.05 91.82 91.88 91.03
9/29/2020 23:00 to 22:10 91.61 91.61 91.20 90.81 90.27 90.50
9/29/2020 22:00 to 21:10 90.66 91.26 92.85 94.40 93.88 91.82
9/29/2020 21:00 to 20:10 92.02 91.82 91.63 91.84 91.07 92.13
9/29/2020 20:00 to 19:10 92.46 93.59 94.54 92.00 90.99 91.67
9/29/2020 19:00 to 18:10 92.95 93.32 93.34 93.01 92.75 92.99
9/29/2020 18:00 to 17:10 92.54 90.81 92.48 92.60 92.56 91.36
9/29/2020 17:00 to 16:10 91.78 92.52 93.74 93.06 93.26 94.83
9/29/2020 16:00 to 15:10 94.97 95.22 94.58 94.67 96.01 95.16
9/29/2020 15:00 to 14:10 96.52 97.22 98.01 98.05 97.78 98.17
9/29/2020 14:00 to 13:10 98.54 97.57 95.68 94.34 94.27 93.90
9/29/2020 13:00 to 12:10 93.84 94.44 94.79 94.93 94.19 94.23
9/29/2020 12:00 to 11:10 94.42 94.09 94.21 94.69 96.15 95.49
9/29/2020 11:00 to 10:10 95.28 94.31 93.57 93.22 94.05 96.89
9/29/2020 10:00 to 9:10 99.16 99.08 99.43 97.99 95.18 94.95
9/29/2020 09:00 to 8:10 95.02 94.56 93.84 92.62 91.84 92.35
9/29/2020 08:00 to 7:10 92.02 91.59 92.25 93.49 95.94 96.34
9/29/2020 07:00 to 6:10 95.37 92.37 94.50 94.17 94.11 93.82
9/29/2020 06:00 to 5:10 92.52 91.34 90.77 90.54 90.93 91.01
9/29/2020 05:00 to 4:10 90.44 90.64 90.91 91.74 92.13 91.82
9/29/2020 04:00 to 3:10 92.15 92.13 91.84 91.36 91.30 91.78
9/29/2020 03:00 to 2:10 92.81 94.21 95.82 97.27 97.37 97.95
9/29/2020 02:00 to 1:10 98.50 98.94 98.87 99.29 99.39 99.76
9/29/2020 01:00 to 0:10 100.26 99.29 98.19 97.84 97.39 97.24